This is the latest recevied weather packets stored in our database for station/object OE9SAU-10. If no packets are shown the sender has not sent any weather packets the latest 10 day(s).
| Time | Temp. | Humidity | Pressure | Rain* | Wind** | Luminosity | Snow |
|---|---|---|---|---|---|---|---|
| 1777277863 | 16.67° C | 42% | 1024.1 hPa | - | - | - | - |
| 1777276963 | 15.56° C | 43% | 1024 hPa | - | - | - | - |
| 1777276063 | 15° C | 44% | 1024.1 hPa | - | - | - | - |
| 1777275163 | 14.44° C | 44% | 1024.1 hPa | - | - | - | - |
| 1777274263 | 13.89° C | 45% | 1024.3 hPa | - | - | - | - |
| 1777273363 | 12.78° C | 42% | 1024.3 hPa | - | - | - | - |
| 1777272463 | 12.22° C | 49% | 1024.4 hPa | - | - | - | - |
| 1777271563 | 11.67° C | 48% | 1024.5 hPa | - | - | - | - |
| 1777270663 | 11.11° C | 44% | 1024.4 hPa | - | - | - | - |
| 1777269763 | 11.11° C | 42% | 1024.5 hPa | - | - | - | - |
| 1777268862 | 11.11° C | 40% | 1024.4 hPa | - | - | - | - |
| 1777267962 | 11.11° C | 41% | 1024.4 hPa | - | - | - | - |
| 1777267062 | 11.11° C | 40% | 1024.3 hPa | - | - | - | - |
| 1777266162 | 11.11° C | 40% | 1024.3 hPa | - | - | - | - |
| 1777265262 | 11.11° C | 40% | 1024.3 hPa | - | - | - | - |
| 1777264362 | 11.67° C | 39% | 1024.1 hPa | - | - | - | - |
| 1777263462 | 11.67° C | 39% | 1024 hPa | - | - | - | - |
| 1777262562 | 11.67° C | 39% | 1024 hPa | - | - | - | - |
| 1777261662 | 12.22° C | 38% | 1024.1 hPa | - | - | - | - |
| 1777260762 | 12.22° C | 38% | 1024.2 hPa | - | - | - | - |
| 1777259862 | 12.22° C | 38% | 1024.1 hPa | - | - | - | - |
| 1777258962 | 12.78° C | 38% | 1024.1 hPa | - | - | - | - |
| 1777258062 | 12.78° C | 38% | 1024 hPa | - | - | - | - |
| 1777257162 | 12.78° C | 37% | 1024 hPa | - | - | - | - |
| 1777256262 | 13.33° C | 37% | 1024 hPa | - | - | - | - |
* Rain since midnight (hover to see other rain measurements)
** Current wind speed in m/s (hover to see current wind gust speed)